Newcastle, Australia

1:13 AM AEDT on February 23, 2017 (GMT +1100)
Williamtown Military

Weather History for YWLM - January, 2013

Change the Weather History Date:

Wednesday, January 23, 2013

  Actual Average Record
Temperature  
Mean Temperature 71 °F -  
Max Temperature 75 °F - - ()
Min Temperature 67 °F - - ()
Cooling Degree Days 6    
Growing Degree Days 21 (Base 50)    
Moisture  
Dew Point 67 °F    
Average Humidity 83    
Maximum Humidity 94    
Minimum Humidity 69    
Precipitation  
Precipitation 0.08 in - - ()
Sea Level Pressure  
Sea Level Pressure 29.94 in    
Wind  
Wind Speed 12 mph ()    
Max Wind Speed 22 mph    
Max Gust Speed 29 mph    
Visibility 6.5 miles    
Events Rain    
T = Trace of Precipitation, MM = Missing Value Source: Averaged Metar Reports

Daily Weather History Graph

Daily Weather History Graph

Search for Another Location

Airport or City:

Trip Planner

Search our weather history database for the weather conditions in past years. The results will help you decide how hot, cold, wet, or windy it might be!

Date:

Astronomy

Jan. 23, 2013 Rise Set
Actual Time 6:07 AM AEDT 8:01 PM AEDT
Civil Twilight 5:40 AM AEDT 8:28 PM AEDT
Nautical Twilight 5:06 AM AEDT 9:01 PM AEDT
Astronomical Twilight 4:31 AM AEDT 9:36 PM AEDT
Moon 4:54 PM AEDT (1/23) 2:32 AM AEDT (1/23)
Length of Visible Light 14h 48m
Length of Day
13h 53m
Waxing Gibbous, 85% of the Moon is Illuminated
Jan 23
Waxing Gibbous
Jan 27
Full
Feb 4
Last Quarter
Feb 10
New
Feb 18
First Quarter

Hourly Weather History & Observations

Time (AEDT) Temp. Dew Point Humidity Pressure Visibility Wind Dir Wind Speed Gust Speed Precip Events Conditions
12:00 AM 69 °F 67 °F 91% 29.86 in - NNE 5.8 mph - -  
12:00 AM 69.8 °F 66.2 °F 88% 29.86 in 6.2 mi NNE 5.8 mph - N/A   Unknown
12:30 AM 69.8 °F 66.2 °F 88% 29.86 in 6.2 mi NE 3.5 mph - N/A   Unknown
1:00 AM 69.8 °F 66.2 °F 88% 29.86 in - East 2.3 mph - N/A   Unknown
1:30 AM 68.0 °F 66.2 °F 94% 29.86 in 6.2 mi Calm Calm - N/A   Unknown
2:00 AM 68 °F 66 °F 93% 29.88 in - Calm Calm - -  
2:00 AM 68.0 °F 66.2 °F 94% 29.86 in 6.2 mi Calm Calm - N/A   Mostly Cloudy
2:30 AM 69.8 °F 68.0 °F 94% 29.86 in 6.2 mi South 8.1 mph - N/A   Mostly Cloudy
3:00 AM 72 °F 70 °F 90% 29.88 in 4 mi South 10.4 mph - -   Overcast
3:00 AM 71.6 °F 69.8 °F 94% 29.86 in 4.3 mi South 10.4 mph - N/A   Overcast
3:30 AM 71.6 °F 68.0 °F 88% 29.86 in 6.2 mi South 13.8 mph - N/A   Mostly Cloudy
3:45 AM 71.6 °F 68.0 °F 88% 29.86 in 5.6 mi South 13.8 mph - N/A   Mostly Cloudy
4:00 AM 71.6 °F 68.0 °F 88% 29.86 in 6.2 mi South 15.0 mph - N/A   Scattered Clouds
4:30 AM 69.8 °F 68.0 °F 94% 29.86 in 5.6 mi South 16.1 mph - N/A   Unknown
5:00 AM 70 °F 68 °F 92% 29.89 in - South 15.0 mph - -  
5:00 AM 69.8 °F 68.0 °F 94% 29.89 in 5.0 mi South 15.0 mph - N/A   Scattered Clouds
5:13 AM 69.8 °F 68.0 °F 94% 29.89 in 5.0 mi SSW 15.0 mph - N/A   Mostly Cloudy
5:26 AM 69.8 °F 68.0 °F 94% 29.89 in 5.0 mi SSW 15.0 mph - N/A   Scattered Clouds
5:30 AM 69.8 °F 68.0 °F 94% 29.89 in 5.0 mi SSW 15.0 mph - N/A   Scattered Clouds
6:00 AM 70 °F 67 °F 89% 29.89 in 16 mi SSW 16.1 mph - -   Partly Cloudy
6:00 AM 69.8 °F 68.0 °F 94% 29.89 in 6.2 mi SSW 16.1 mph - N/A   Mostly Cloudy
6:30 AM 69.8 °F 68.0 °F 94% 29.89 in 6.2 mi SSW 15.0 mph - N/A   Mostly Cloudy
7:00 AM 69.8 °F 66.2 °F 88% 29.92 in 6.2 mi SSW 12.7 mph - N/A   Mostly Cloudy
7:30 AM 71.6 °F 68.0 °F 88% 29.92 in 6.2 mi SSW 18.4 mph - N/A   Mostly Cloudy
8:00 AM 72 °F 67 °F 81% 29.94 in - SSW 15.0 mph - -  
8:00 AM 71.6 °F 68.0 °F 88% 29.92 in 6.2 mi SSW 15.0 mph - N/A   Mostly Cloudy
8:30 AM 73.4 °F 66.2 °F 78% 29.95 in 6.2 mi SSW 16.1 mph - N/A   Mostly Cloudy
9:00 AM 73 °F 66 °F 73% 29.96 in 16 mi SSW 18.4 mph - -   Partly Cloudy
9:00 AM 73.4 °F 66.2 °F 78% 29.95 in 6.2 mi SSW 18.4 mph - N/A   Mostly Cloudy
9:30 AM 73.4 °F 66.2 °F 78% 29.95 in 6.2 mi SSW 17.3 mph - N/A   Mostly Cloudy
10:00 AM 73.4 °F 66.2 °F 78% 29.98 in 6.2 mi SSW 17.3 mph - N/A   Mostly Cloudy
10:07 AM 73.4 °F 66.2 °F 78% 29.98 in 6.2 mi SSW 17.3 mph 28.8 mph N/A   Mostly Cloudy
10:30 AM 73.4 °F 66.2 °F 78% 29.98 in 6.2 mi SSW 16.1 mph - N/A   Mostly Cloudy
10:49 AM 73.4 °F 66.2 °F 78% 29.98 in 6.2 mi SSW 17.3 mph - N/A   Mostly Cloudy
11:00 AM 73 °F 65 °F 71% 29.99 in - SSW 17.3 mph - -  
11:00 AM 73.4 °F 66.2 °F 78% 29.98 in 6.2 mi SSW 17.3 mph - N/A   Mostly Cloudy
11:30 AM 73.4 °F 66.2 °F 78% 29.98 in 6.2 mi South 18.4 mph - N/A   Mostly Cloudy
12:00 PM 72 °F 66 °F 76% 29.99 in 12 mi SSW 17.3 mph - -   Partly Cloudy
12:00 PM 71.6 °F 66.2 °F 83% 29.98 in 6.2 mi SSW 17.3 mph - N/A   Scattered Clouds
12:30 PM 73.4 °F 66.2 °F 78% 29.98 in 6.2 mi SSW 17.3 mph - N/A   Mostly Cloudy
1:00 PM 73.4 °F 66.2 °F 78% 29.98 in 6.2 mi South 19.6 mph - N/A   Mostly Cloudy
1:30 PM 73.4 °F 66.2 °F 78% 29.98 in 6.2 mi SSW 21.9 mph - N/A   Scattered Clouds
2:00 PM 74 °F 66 °F 69% 29.97 in - SSW 19.6 mph - -  
2:00 PM 73.4 °F 66.2 °F 78% 29.95 in 6.2 mi SSW 19.6 mph - N/A   Mostly Cloudy
2:30 PM 75.2 °F 66.2 °F 73% 29.95 in 6.2 mi South 21.9 mph - N/A   Scattered Clouds
3:00 PM 74 °F 66 °F 70% 29.97 in 12 mi South 21.9 mph - -   Partly Cloudy
3:00 PM 73.4 °F 66.2 °F 78% 29.95 in 6.2 mi South 21.9 mph - N/A   Scattered Clouds
3:30 PM 73.4 °F 66.2 °F 78% 29.95 in 6.2 mi South 19.6 mph - N/A   Mostly Cloudy
4:00 PM 73.4 °F 66.2 °F 78% 29.95 in 6.2 mi SSW 19.6 mph - N/A   Mostly Cloudy
4:30 PM 73.4 °F 66.2 °F 78% 29.95 in 6.2 mi South 18.4 mph - N/A   Mostly Cloudy
5:00 PM 73 °F 66 °F 74% 29.95 in - SSW 19.6 mph - -  
5:00 PM 73.4 °F 66.2 °F 78% 29.95 in 6.2 mi SSW 19.6 mph - N/A   Mostly Cloudy
5:30 PM 73.4 °F 66.2 °F 78% 29.95 in 6.2 mi South 17.3 mph - N/A   Mostly Cloudy
6:00 PM 72 °F 66 °F 77% 29.96 in - SSW 19.6 mph - -   Overcast
6:00 PM 71.6 °F 66.2 °F 83% 29.95 in 6.2 mi South 19.6 mph - N/A   Mostly Cloudy
6:30 PM 71.6 °F 66.2 °F 83% 29.95 in 6.2 mi South 19.6 mph - N/A   Mostly Cloudy
7:00 PM 71.6 °F 66.2 °F 83% 29.98 in 6.2 mi SSW 19.6 mph - N/A   Mostly Cloudy
7:30 PM 71.6 °F 66.2 °F 83% 29.98 in 6.2 mi SSW 17.3 mph - N/A   Mostly Cloudy
8:00 PM 72 °F 66 °F 75% 30.00 in - SSW 17.3 mph - -  
8:00 PM 71.6 °F 66.2 °F 83% 29.98 in 6.2 mi SSW 17.3 mph - N/A   Mostly Cloudy
8:30 PM 71.6 °F 66.2 °F 83% 30.01 in 6.2 mi SSW 15.0 mph - N/A   Mostly Cloudy
9:00 PM 72 °F 66 °F 76% 30.01 in - SSW 17.3 mph - -   Overcast
9:00 PM 71.6 °F 66.2 °F 83% 30.01 in 6.2 mi SSW 17.3 mph - N/A   Mostly Cloudy
9:33 PM 71.6 °F 66.2 °F 83% 30.01 in 6.2 mi SSW 17.3 mph - N/A   Overcast
10:00 PM 71.6 °F 66.2 °F 83% 30.01 in 6.2 mi SSW 16.1 mph - N/A   Overcast
10:30 PM 71.6 °F 66.2 °F 83% 30.01 in 6.2 mi SSW 16.1 mph - N/A   Overcast
11:00 PM 71 °F 66 °F 80% 30.03 in - SSW 15.0 mph - -  
11:00 PM 71.6 °F 66.2 °F 83% 30.01 in 6.2 mi SSW 15.0 mph - N/A Rain Light Rain
11:30 PM 69.8 °F 68.0 °F 94% 30.04 in 5.0 mi South 15.0 mph - N/A Rain Light Rain Showers
11:37 PM 69.8 °F 66.2 °F 88% 30.04 in 3.7 mi South 16.1 mph - N/A Rain Light Rain Showers